User: anonymous   Login
Location: La Pernelle
(49.6188°N, 1.2999°W)
Time: 09:22:03
(UTC+00:00)
Language:

Cosmos 1378 Rocket - Orbit

View from above orbital plane
View from above orbital plane
View from above satellite
View from above satellite

Ground track
Ground track

The orbit data is extracted from the following two-line orbital elements,

1 13272U 82059B   21263.88695090  .00000107  00000-0  97603-5 0  9996
2 13272  82.5083 116.3053 0019065  20.8578 339.3411 14.84768018101792
Epoch (UTC): 20 September 2021 21:17:12
Eccentricity: 0.0019065
inclination: 82.5083°
perigee height: 601 km
apogee height: 627 km
right ascension of ascending node: 116.3053°
argument of perigee: 20.8578°
revolutions per day: 14.84768018
mean anomaly at epoch: 339.3411°
orbit number at epoch: 10179

The dashed part of the orbit path shows where the satellite is in the earth's shadow,  

DLR